Montreal Mirabel, Quebec

7:42 AM EDT on September 24, 2017 (GMT -0400)
Montreal Mirabel

Weather History for CYMX - July, 2013

Change the Weather History Date:

Monday, July 22, 2013

  Actual Average Record
Temperature  
Mean Temperature 62 °F -  
Max Temperature 75 °F 75 °F 89 °F (2002)
Min Temperature 50 °F 57 °F 50 °F (1996)
Degree Days  
Heating Degree Days 2    
Growing Degree Days 12 (Base 50)    
Moisture  
Dew Point 52 °F    
Average Humidity 71    
Maximum Humidity 100    
Minimum Humidity 38    
Precipitation  
Precipitation 0.00 in - - ()
Sea Level Pressure  
Sea Level Pressure 29.99 in    
Wind  
Wind Speed 3 mph ()    
Max Wind Speed 7 mph    
Max Gust Speed -    
Averages and records for this station are not official NWS values.
T = Trace of Precipitation, MM = Missing Value Source: Averaged Metar Reports

Daily Weather History Graph

Daily Weather History Graph

Search for Another Location

Airport or City:

Trip Planner

Search our weather history database for the weather conditions in past years. The results will help you decide how hot, cold, wet, or windy it might be!

Date:

Astronomy

Jul. 22, 2013 Rise Set
Actual Time 5:28 AM EDT 8:36 PM EDT
Civil Twilight 4:52 AM EDT 9:11 PM EDT
Nautical Twilight 4:06 AM EDT 9:57 PM EDT
Astronomical Twilight 3:10 AM EDT 10:53 PM EDT
Moon 8:14 PM EDT (7/22) 5:25 AM EDT (7/22)
Length of Visible Light 16h 18m
Length of Day
15h 07m
Full, 100% of the Moon is Illuminated
Jul 22
Full
Jul 22
Full
Jul 29
Last Quarter
Aug 6
New
Aug 14
First Quarter

Hourly Weather History & Observations

Time (EDT) Temp. Dew Point Humidity Pressure Visibility Wind Dir Wind Speed Gust Speed Precip Events Conditions
12:00 AM 53.6 °F 51.8 °F 94% 30.06 in 25.0 mi NW 2.3 mph - N/A   Clear
1:00 AM 51.8 °F 51.8 °F 100% 30.06 in 25.0 mi North 2.3 mph - N/A   Clear
2:00 AM 50.0 °F 50.0 °F 100% 30.05 in 25.0 mi Calm Calm - N/A   Clear
3:00 AM 50.0 °F 50.0 °F 100% 30.05 in 25.0 mi North 2.3 mph - N/A   Partly Cloudy
4:00 AM 53.6 °F 48.2 °F 82% 30.05 in 25.0 mi NNE 5.8 mph - N/A   Partly Cloudy
5:00 AM 50.0 °F 48.2 °F 94% 30.05 in 45.0 mi NE 2.3 mph - N/A   Mostly Cloudy
6:00 AM 50.0 °F 48.2 °F 94% 30.06 in 45.0 mi North 4.6 mph - N/A   Mostly Cloudy
7:00 AM 53.6 °F 50.0 °F 88% 30.06 in 45.0 mi NNE 3.5 mph - N/A   Mostly Cloudy
8:00 AM 59.0 °F 51.8 °F 77% 30.06 in 45.0 mi NE 4.6 mph - N/A   Scattered Clouds
9:00 AM 64.4 °F 53.6 °F 68% 30.06 in 45.0 mi NNE 4.6 mph - N/A   Scattered Clouds
10:00 AM 66.2 °F 50.0 °F 56% 30.06 in 45.0 mi North 2.3 mph - N/A   Partly Cloudy
11:00 AM 69.8 °F 53.6 °F 56% 30.04 in 40.0 mi SSE 3.5 mph - N/A   Partly Cloudy
12:00 PM 71.6 °F 51.8 °F 50% 30.02 in 45.0 mi North 3.5 mph - N/A   Partly Cloudy
1:00 PM 71.6 °F 55.4 °F 57% 30.01 in 45.0 mi SW 3.5 mph - N/A   Partly Cloudy
2:00 PM 73.4 °F 50.0 °F 44% 29.99 in 45.0 mi SE 5.8 mph - N/A   Partly Cloudy
3:00 PM 75.2 °F 50.0 °F 41% 29.97 in 45.0 mi South 3.5 mph - N/A   Partly Cloudy
4:00 PM 75.2 °F 48.2 °F 38% 29.94 in 45.0 mi South 6.9 mph - N/A   Partly Cloudy
5:00 PM 75.2 °F 51.8 °F 44% 29.92 in 45.0 mi WNW 3.5 mph - N/A   Partly Cloudy
6:00 PM 73.4 °F 46.4 °F 38% 29.91 in 45.0 mi WSW 3.5 mph - N/A   Scattered Clouds
7:00 PM 68.0 °F 59.0 °F 73% 29.89 in 45.0 mi WSW 2.3 mph - N/A   Mostly Cloudy
8:00 PM 64.4 °F 55.4 °F 73% 29.89 in 45.0 mi South 2.3 mph - N/A   Mostly Cloudy
9:00 PM 60.8 °F 55.4 °F 82% 29.89 in 25.0 mi Calm Calm - N/A   Mostly Cloudy
10:00 PM 60.8 °F 51.8 °F 72% 29.88 in 25.0 mi North 2.3 mph - N/A   Mostly Cloudy
11:00 PM 60.8 °F 53.6 °F 77% 29.86 in 25.0 mi NNW 3.5 mph - N/A   Mostly Cloudy